Weather History for Gwinn, MI

Change the Weather History Date:

Tuesday, November 19, 2013

  Actual Average (KESC) Record (KESC)
Temperature  
Mean Temperature 24 °F -  
Max Temperature 32 °F 40 °F 55 °F (1953)
Min Temperature 17 °F 28 °F 6 °F (2014)
Degree Days  
Heating Degree Days 40    
Moisture  
Dew Point 18 °F    
Average Humidity 72    
Maximum Humidity 86    
Minimum Humidity 51    
Precipitation  
Precipitation 0.00 in - - ()
Sea Level Pressure  
Sea Level Pressure 30.21 in    
Wind  
Wind Speed 11 mph (WNW)    
Max Wind Speed 20 mph    
Max Gust Speed 23 mph    
Visibility 10 miles    
Events      
Averages and records for this station are not official NWS values.
T = Trace of Precipitation, MM = Missing Value Source: NWS Daily Summary

Daily Weather History Graph

Daily Weather History Graph

Search for Another Location

Airport:

Trip Planner

Search our weather history database for the weather conditions in past years. The results will help you decide how hot, cold, wet, or windy it might be!

Date:

Astronomy

Nov. 19, 2013 Rise Set
Actual Time 7:56 AM EST 5:12 PM EST
Civil Twilight 7:23 AM EST 5:45 PM EST
Nautical Twilight 6:47 AM EST 6:22 PM EST
Astronomical Twilight 6:11 AM EST 6:58 PM EST
Moon 7:02 PM EST (11/19) 9:37 AM EST (11/19)
Length of Visible Light 10h 21m
Length of Day
9h 15m
Waning Gibbous, 96% of the Moon is Illuminated
Nov 19
Waning Gibbous
Nov 25
Last Quarter
Dec 2
New
Dec 9
First Quarter
Dec 17
Full

Hourly Weather History & Observations

Time (EST) Temp. Windchill Dew Point Humidity Pressure Visibility Wind Dir Wind Speed Gust Speed Precip Events Conditions
12:16 AM 26.6 °F 14.7 °F 17.4 °F 68% 30.13 in 10.0 mi NNW 15.0 mph 20.7 mph N/A   Overcast
12:36 AM 26.6 °F 15.7 °F 17.6 °F 69% 30.14 in 10.0 mi NNW 12.7 mph - N/A   Overcast
12:57 AM 26.4 °F 18.9 °F 17.1 °F 68% 30.14 in 10.0 mi North 6.9 mph - N/A   Overcast
1:16 AM 26.2 °F 15.2 °F 17.2 °F 69% 30.14 in 10.0 mi North 12.7 mph 17.3 mph N/A   Overcast
1:37 AM 26.2 °F 15.2 °F 17.6 °F 70% 30.15 in 10.0 mi North 12.7 mph - N/A   Overcast
1:56 AM 26.1 °F 15.0 °F 17.1 °F 69% 30.16 in 10.0 mi NNW 12.7 mph - N/A   Overcast
2:16 AM 25.7 °F 15.7 °F 17.2 °F 70% 30.17 in 10.0 mi NNW 10.4 mph 18.4 mph N/A   Overcast
2:37 AM 25.7 °F 15.7 °F 16.9 °F 69% 30.18 in 10.0 mi NNW 10.4 mph 16.1 mph N/A   Overcast
2:56 AM 25.5 °F 16.2 °F 16.7 °F 69% 30.19 in 10.0 mi NNW 9.2 mph - N/A   Overcast
3:17 AM 24.8 °F 14.0 °F 15.8 °F 69% 30.20 in 10.0 mi North 11.5 mph - N/A   Overcast
3:37 AM 24.6 °F 15.8 °F 15.8 °F 69% 30.21 in 10.0 mi NNW 8.1 mph - N/A   Overcast
3:56 AM 23.9 °F 13.5 °F 15.4 °F 70% 30.21 in 10.0 mi North 10.4 mph - N/A   Scattered Clouds
4:17 AM 23.4 °F 13.5 °F 14.9 °F 70% 30.21 in 10.0 mi NNW 9.2 mph - N/A   Scattered Clouds
4:36 AM 22.8 °F 13.6 °F 14.9 °F 72% 30.22 in 10.0 mi North 8.1 mph - N/A   Scattered Clouds
4:56 AM 22.1 °F 13.7 °F 14.7 °F 73% 30.23 in 10.0 mi North 6.9 mph - N/A   Clear
5:17 AM 21.2 °F 12.6 °F 14.7 °F 76% 30.23 in 10.0 mi North 6.9 mph - N/A   Clear
5:36 AM 21.0 °F 12.4 °F 14.7 °F 77% 30.23 in 10.0 mi North 6.9 mph - N/A   Clear
5:57 AM 20.8 °F 13.2 °F 14.5 °F 77% 30.24 in 10.0 mi NNW 5.8 mph - N/A   Clear
7:52 AM 17.6 °F 12.3 °F 14.0 °F 86% 30.28 in 10.0 mi West 3.5 mph - N/A   Mostly Cloudy
8:55 AM 21.2 °F 14.9 °F 15.8 °F 80% 30.29 in 10.0 mi West 4.6 mph - N/A   Overcast
9:50 AM 23.0 °F 18.4 °F 17.6 °F 80% 30.30 in 10.0 mi WSW 3.5 mph - N/A   Overcast
10:55 AM 24.8 °F - 17.6 °F 74% 30.30 in 10.0 mi Calm Calm - N/A   Overcast
11:50 AM 26.6 °F - 17.6 °F 69% 30.30 in 10.0 mi Calm Calm - N/A   Scattered Clouds
12:50 PM 30.2 °F 26.7 °F 17.6 °F 60% 30.29 in 10.0 mi SSW 3.5 mph - N/A   Clear
1:50 PM 32.0 °F 25.6 °F 17.6 °F 55% 30.27 in 10.0 mi SSW 6.9 mph - N/A   Clear
2:55 PM 32.0 °F 24.2 °F 17.6 °F 55% 30.24 in 10.0 mi South 9.2 mph - N/A   Clear
3:50 PM 32.0 °F 23.0 °F 17.6 °F 55% 30.24 in 10.0 mi South 11.5 mph - N/A   Clear
4:50 PM 32.0 °F 23.6 °F 15.8 °F 51% 30.24 in 10.0 mi SSW 10.4 mph - N/A   Clear
5:50 PM 28.4 °F 19.1 °F 14.0 °F 55% 30.22 in 10.0 mi SSE 10.4 mph - N/A   Clear
6:50 PM 28.4 °F 17.0 °F 21.2 °F 74% 30.22 in 10.0 mi South 15.0 mph - N/A   Clear
7:50 PM 28.4 °F 18.5 °F 23.0 °F 80% 30.21 in 10.0 mi South 11.5 mph - N/A   Clear
8:50 PM 28.4 °F - 23.0 °F 80% 30.21 in 10.0 mi North - - N/A   Clear
9:50 PM 28.4 °F - 23.0 °F 80% 30.19 in - North - - N/A   Overcast
10:16 PM 29.7 °F 18.2 °F 24.8 °F 82% 30.18 in 10.0 mi South 16.1 mph 21.9 mph N/A   Overcast
10:37 PM 30.2 °F 18.1 °F 25.5 °F 83% 30.17 in 10.0 mi SSW 18.4 mph - N/A   Overcast
10:56 PM 30.6 °F 19.8 °F 26.1 °F 83% 30.17 in 10.0 mi SSW 15.0 mph 20.7 mph N/A   Overcast
11:16 PM 30.9 °F 20.2 °F 26.2 °F 83% 30.17 in 10.0 mi SSW 15.0 mph 21.9 mph N/A   Overcast
11:37 PM 31.3 °F 19.2 °F 26.4 °F 82% 30.17 in 10.0 mi SSW 19.6 mph 23.0 mph N/A   Overcast
11:56 PM 31.8 °F 21.0 °F 26.6 °F 81% 30.17 in 10.0 mi SSW 16.1 mph - N/A   Overcast